Temp
9 9 9 9 9 9 9 11 14 16 16 16 16 16 16 16 16 17 17 17 17 16 17 17 17 17 17 18 18 18 18 16 15 13 15 22 25 25 25 24 24 23 23 23 23 22 22 22 22 22 23 24 24 24 24 25 25 24 24 24 24 24 25 26 27 27 27 27 26 24 24 24 24 24 24 25 26 25 25 25 25 26 26 26 25 24 23 23
9 9 9 9 9 9 10 11 14 15 15 16 16 16 16 16 16 17 17 17 17 17 17 17 17 17 17 17 17 17 17 15 13 13 19 25 25 24 24 24 24 23 23 23 23 23 23 23 22 23 24 24 24 25 24 25 25 24 24 24 24 25 26 27 27 27 27 27 26 25 25 25 25 24 24 25 25 25 25 25 25 25 24 24 24 23 23 23
9 9 8 9 9 9 10 12 14 15 15 16 16 16 16 16 16 17 17 17 17 17 17 17 17 16 17 17 16 17 15 13 16 19 24 26 25 24 24 24 24 24 23 23 23 24 24 23 23 23 24 24 24 24 24 25 25 25 25 25 26 26 27 27 27 27 27 27 26 25 25 25 25 25 25 26 26 26 26 25 25 24 24 23 24 24 23 23
8 8 9 9 8 9 10 12 15 15 15 15 16 16 17 17 17 17 17 17 17 17 17 17 16 16 16 16 16 16 13 16 22 25 25 25 25 24 24 24 24 24 24 23 23 24 24 23 23 24 24 25 25 24 24 25 26 25 25 26 27 26 26 28 27 27 27 27 26 25 25 25 25 25 26 26 26 26 26 26 26 25 24 23 24 24 24 24
8 9 9 9 9 9 11 13 14 15 15 15 16 16 16 17 17 17 17 17 17 17 17 17 16 16 16 16 16 15 15 21 26 25 25 25 25 24 23 24 24 24 23 23 24 24 24 23 24 24 25 25 24 24 25 25 26 25 26 26 27 26 26 28 27 27 27 26 26 25 25 26 25 25 26 26 27 27 27 27 26 25 25 24 24 25 24 24
9 9 9 9 9 10 12 13 14 14 15 16 16 16 16 17 17 17 17 17 17 17 17 17 16 15 16 16 16 15 18 24 25 24 25 25 25 23 23 24 24 24 23 23 23 23 24 24 25 25 25 25 24 25 25 26 26 25 26 27 27 27 27 27 27 27 27 26 26 26 26 26 25 25 26 26 26 27 27 27 26 26 25 25 25 25 24 24
9 9 9 9 9 10 12 13 14 14 15 16 16 16 17 17 17 17 17 17 17 17 17 17 17 16 15 15 16 16 19 24 24 23 25 24 24 23 21 22 22 23 23 24 23 24 24 23 25 25 25 25 25 25 26 26 26 25 26 27 27 28 27 28 28 27 27 26 26 26 26 25 25 25 26 26 26 26 27 27 26 26 26 25 25 25 24 24
9 8 8 8 9 11 13 13 14 15 15 16 16 17 17 17 17 17 17 17 17 18 17 17 17 16 15 15 16 18 20 23 24 24 24 24 23 21 21 21 22 23 23 24 24 24 24 24 25 25 25 26 25 25 26 26 26 26 26 27 28 28 28 28 28 27 27 26 26 26 26 26 26 26 26 26 26 26 27 26 26 26 25 25 25 24 24 25
8 8 8 8 9 11 13 13 14 15 15 16 16 17 18 18 17 18 18 18 18 18 18 17 17 16 15 15 17 21 23 24 24 24 24 24 23 21 21 22 23 23 23 24 24 24 24 24 25 25 25 26 25 26 26 26 27 27 27 28 28 28 29 29 27 27 26 26 26 26 26 26 26 26 26 26 26 26 26 26 26 25 25 25 25 25 25 24
8 8 8 9 10 12 13 13 14 15 16 16 16 17 18 18 18 18 18 18 18 18 18 17 17 15 14 15 18 23 24 24 24 24 24 24 23 22 22 23 23 23 23 23 24 25 25 25 25 25 26 26 26 26 26 27 27 28 28 28 28 28 28 28 27 26 26 26 26 27 26 26 26 26 27 26 26 26 26 26 25 25 25 25 25 25 25 25
8 8 9 10 11 12 12 13 14 15 16 17 17 18 19 19 19 19 19 19 19 19 18 17 16 16 14 15 20 24 24 23 24 24 24 24 24 22 23 23 23 24 23 23 24 25 25 25 25 26 26 26 26 26 27 27 27 28 28 28 28 28 27 27 27 26 27 26 26 27 26 26 26 26 27 26 26 26 26 25 25 25 25 25 25 25 25 25
8 9 10 11 11 12 13 14 15 15 16 17 18 19 19 20 21 20 20 20 19 19 18 17 16 16 15 16 20 23 24 23 24 24 24 24 24 23 24 24 24 24 24 24 24 24 25 25 25 26 26 26 26 27 27 27 27 28 28 28 29 28 27 26 26 26 27 26 26 27 26 26 26 26 27 27 26 27 26 25 25 25 25 25 25 25 25 25
9 9 11 11 12 13 14 14 15 15 17 17 18 19 20 21 21 22 21 20 20 19 18 17 16 15 15 19 22 23 24 23 23 24 23 23 23 23 23 23 23 24 25 25 24 24 25 25 25 26 26 26 27 27 27 27 27 28 28 28 29 29 27 26 26 26 27 26 27 28 25 26 27 26 27 27 26 26 26 25 25 25 26 25 26 25 25 25
9 10 11 12 13 13 14 15 15 16 17 18 18 20 20 21 21 21 21 21 20 19 18 17 16 15 16 21 23 23 23 23 23 23 23 23 23 22 22 22 22 23 24 24 24 25 25 25 26 26 26 26 27 27 27 27 27 29 28 28 28 26 25 27 26 26 27 26 27 27 24 26 29 27 27 26 26 26 26 26 26 26 26 26 26 25 25 25
10 11 11 12 13 14 15 15 15 16 17 17 18 19 20 20 21 20 21 20 19 18 17 17 16 16 18 22 23 23 23 23 23 23 24 24 23 22 21 21 22 22 23 24 24 24 24 25 25 26 26 26 27 27 27 27 28 28 26 25 27 25 25 27 27 27 27 26 27 27 24 27 29 27 27 26 26 27 26 26 26 26 26 26 26 26 25 25
11 11 11 12 13 14 15 16 16 16 17 17 18 19 19 20 20 20 20 19 18 17 17 16 15 16 20 23 23 23 23 23 24 24 23 24 24 22 21 21 22 22 23 23 23 24 24 25 25 26 26 26 26 27 27 26 26 28 26 24 25 25 25 26 26 27 28 27 27 27 26 28 28 27 27 26 27 27 26 26 26 26 26 26 26 26 26 25
10 11 12 12 13 14 15 16 16 16 17 17 17 18 18 18 19 19 19 18 17 16 16 16 15 16 21 24 23 23 24 24 24 24 23 23 24 23 21 21 22 22 23 23 23 24 24 25 25 25 26 26 26 26 25 23 23 25 26 25 24 25 25 25 26 27 28 27 27 27 27 28 27 27 26 26 27 27 26 26 26 26 26 26 26 26 26 25
10 12 13 13 13 14 15 16 16 16 17 17 17 18 18 17 18 18 18 17 16 16 16 16 16 18 22 24 23 24 24 24 24 24 22 22 23 23 22 22 22 23 23 23 23 24 24 25 25 25 25 25 26 26 23 22 23 24 24 24 24 25 25 25 26 27 27 27 28 27 27 28 28 27 26 26 27 27 26 26 26 26 26 26 26 26 26 26
11 11 13 14 14 14 15 16 16 16 17 18 17 17 17 17 17 17 17 16 17 19 20 19 19 21 23 23 23 23 24 24 24 23 22 22 23 23 23 22 23 23 23 23 23 24 24 24 24 24 24 25 25 26 25 25 26 26 25 25 24 24 25 27 28 28 28 27 28 28 27 28 29 28 27 27 27 27 27 27 26 26 26 26 26 26 26 26
11 11 12 14 14 14 15 16 17 16 17 18 16 17 18 18 18 19 17 17 19 21 21 21 20 21 22 22 22 23 24 24 24 24 22 22 23 24 23 23 23 23 24 24 23 24 25 24 24 24 25 26 26 26 27 27 27 27 27 26 25 25 25 28 29 28 28 27 28 29 28 29 29 28 28 27 27 27 26 26 26 26 26 26 26 26 26 26
11 11 12 13 14 14 15 16 17 17 18 18 16 18 19 19 20 20 19 19 20 20 20 21 20 21 22 22 22 23 24 24 25 24 23 23 24 25 24 23 24 24 24 24 24 24 25 24 24 25 26 26 26 26 26 26 27 27 26 25 25 25 26 28 28 28 28 27 28 29 28 28 29 29 28 28 27 27 27 27 26 26 26 27 27 27 27 27
11 11 12 13 14 14 15 16 17 17 18 18 17 19 19 19 19 19 18 20 20 19 19 20 19 20 21 21 22 22 23 24 25 24 23 24 25 25 24 23 24 24 23 24 24 24 24 24 25 25 26 26 25 25 25 26 27 27 26 25 24 25 27 27 28 28 28 27 28 29 28 28 30 30 29 28 27 28 28 27 27 26 26 26 27 27 27 27
12 11 12 13 14 15 16 17 17 17 18 18 18 19 19 18 19 18 18 19 20 19 19 20 20 21 21 22 22 22 23 25 26 25 24 24 24 25 25 24 24 24 23 24 25 23 22 24 25 25 25 26 25 25 25 26 26 26 26 24 24 26 26 25 26 28 28 28 28 29 28 29 30 30 29 28 28 28 28 28 28 27 27 27 27 27 27 27
12 11 12 14 15 15 16 17 17 17 18 18 18 19 18 18 19 19 19 19 19 20 20 20 21 21 22 23 23 23 24 24 25 25 25 25 25 24 25 25 24 24 24 24 25 24 24 25 25 25 25 26 25 25 26 26 25 26 26 25 25 26 26 25 27 28 28 28 29 28 25 27 29 29 29 29 28 28 28 28 27 27 27 27 27 27 27 27
13 12 13 14 15 16 16 16 17 16 17 18 18 18 19 19 19 19 20 19 19 20 21 20 20 22 23 23 23 24 25 24 25 25 25 26 25 25 25 24 24 25 24 23 24 25 25 25 25 25 25 26 25 25 26 26 25 25 26 27 27 27 27 27 27 27 26 25 28 27 23 23 27 28 29 29 28 28 28 27 27 27 27 27 27 27 27 28
13 13 14 14 16 17 16 17 17 16 17 18 19 19 19 19 20 20 19 19 20 21 22 21 21 23 23 23 23 24 25 25 24 24 24 25 26 25 25 24 24 24 23 24 25 25 25 25 25 25 25 25 25 25 26 26 24 23 25 27 27 28 27 27 27 26 23 23 27 28 23 22 25 28 29 29 28 28 27 27 27 27 27 27 27 27 28 28
14 14 14 15 17 17 17 17 17 16 18 19 19 19 19 20 20 20 20 20 20 21 22 22 22 23 23 23 23 24 24 24 25 24 24 25 25 25 25 24 25 24 23 24 23 24 25 24 24 26 25 25 25 25 25 26 25 23 26 27 27 28 27 27 27 25 24 25 26 27 26 23 23 26 28 28 27 28 27 27 28 27 27 27 27 28 28 28
15 14 15 16 17 17 16 17 17 17 19 19 19 19 20 20 20 20 20 20 20 21 22 22 22 23 23 23 23 24 24 23 25 24 24 24 24 25 26 25 25 25 24 24 23 23 25 25 25 26 25 25 26 26 26 26 26 26 27 27 27 28 28 28 27 25 25 25 23 25 26 23 22 25 28 28 27 27 27 28 28 28 27 27 28 28 28 28
16 15 16 17 18 17 17 17 17 19 19 19 19 20 20 20 20 20 20 20 21 22 22 23 23 23 23 23 24 24 24 23 24 24 23 23 24 25 25 24 24 24 24 24 25 25 25 25 26 26 26 26 26 27 26 26 27 27 26 26 27 27 27 28 27 25 24 23 22 23 25 23 22 23 26 26 25 26 27 28 28 29 28 28 28 28 28 28
17 17 18 18 17 17 17 17 18 19 19 19 20 20 20 20 20 20 20 20 21 22 22 23 23 23 23 24 24 23 23 22 22 23 23 23 23 24 23 22 24 25 24 25 26 25 24 24 25 25 25 25 26 26 26 26 27 27 26 27 27 27 27 27 26 25 23 22 22 24 25 24 22 22 24 25 25 26 26 27 28 29 29 28 28 28 29 28
18 18 19 18 17 17 17 18 19 19 19 19 20 20 20 20 20 20 20 20 21 21 22 22 22 22 23 23 23 22 22 21 21 22 22 22 23 22 22 22 23 24 24 24 25 25 25 25 25 24 24 24 25 25 25 26 27 27 27 27 25 24 25 24 23 23 22 21 23 24 25 24 22 22 24 26 26 26 26 26 26 27 28 29 28 28 29 29
19 20 20 19 18 18 18 19 19 19 19 19 19 20 20 20 19 19 19 20 21 21 21 22 22 22 22 22 21 21 22 21 21 21 21 21 21 20 20 21 20 22 22 22 23 24 25 25 24 24 24 24 24 25 25 25 26 27 27 25 22 21 22 21 21 22 21 22 23 23 24 23 22 23 25 26 26 26 25 25 25 25 27 29 29 29 29 29
20 20 20 19 19 18 18 19 19 19 19 19 19 20 20 20 19 19 19 20 20 20 21 21 21 21 22 22 21 20 21 21 20 21 20 21 21 20 20 20 19 20 21 22 22 22 23 24 24 24 24 24 24 25 24 24 25 26 25 23 21 21 21 21 21 21 21 22 23 24 23 22 22 23 26 26 26 26 25 25 25 25 26 27 29 29 29 29
20 20 20 20 19 19 19 19 19 19 19 19 20 20 20 19 19 19 20 20 20 20 20 20 20 21 22 21 20 20 21 20 20 21 21 21 20 20 20 20 20 20 21 22 22 21 21 22 23 23 23 23 24 24 23 24 25 26 26 26 23 22 22 21 21 21 21 22 22 23 23 22 21 24 26 26 26 26 26 25 26 25 25 26 28 30 29 29
21 20 20 20 19 19 20 19 19 19 19 20 21 20 19 18 18 18 19 19 20 20 20 20 20 22 21 20 20 20 21 20 20 20 20 20 19 19 19 19 19 19 20 21 21 21 21 21 22 23 22 23 23 23 23 24 24 25 26 26 23 23 24 22 21 22 22 22 22 22 22 23 24 25 27 27 26 26 25 25 25 25 25 25 26 28 28 29
21 21 20 19 19 19 20 19 19 18 19 21 21 19 18 18 18 18 19 19 19 19 20 20 21 21 21 20 20 20 21 20 19 19 19 19 19 19 18 19 19 19 19 20 20 21 21 21 22 22 22 23 23 22 23 23 23 24 24 23 23 25 25 22 21 22 22 22 22 22 22 23 24 25 27 26 26 25 25 24 25 24 24 24 24 25 26 27
21 21 20 19 19 20 19 19 18 18 19 21 20 18 18 18 18 18 18 19 19 19 20 20 20 19 20 20 19 20 21 20 19 20 19 18 19 18 18 18 19 18 18 19 20 20 20 21 22 22 23 23 22 22 23 23 23 24 23 23 24 24 25 23 21 21 22 22 22 21 21 22 22 23 25 25 25 24 24 24 24 24 23 23 23 24 24 25
21 20 20 20 20 20 20 19 19 19 20 21 19 18 18 19 19 18 18 18 18 19 20 20 19 19 19 20 19 18 20 20 19 19 19 19 19 18 17 18 19 19 18 19 20 20 20 21 22 22 22 22 23 23 23 24 24 23 23 24 23 23 23 22 21 21 22 21 21 21 21 21 21 21 23 24 23 23 23 23 23 23 23 23 23 23 23 24
20 21 21 20 21 21 21 20 20 21 21 20 18 19 19 19 19 19 18 18 18 19 19 19 19 19 18 19 18 18 19 19 18 18 18 18 18 18 18 17 19 20 19 19 20 19 19 21 21 22 22 22 23 23 21 22 23 24 24 24 23 22 22 22 22 22 22 21 21 21 21 21 21 22 22 23 23 23 22 22 23 23 23 22 22 22 22 23
19 21 22 21 21 22 21 21 21 21 20 18 18 19 19 19 19 19 18 18 18 19 19 18 18 19 18 18 18 18 18 18 18 18 18 18 18 18 18 17 17 18 18 19 19 19 20 21 20 22 23 21 21 21 20 20 22 23 23 22 22 22 22 22 22 22 21 21 21 21 21 20 22 23 23 23 23 22 22 22 22 22 22 22 22 22 22 22
18 21 21 21 21 22 22 21 20 18 18 18 18 18 18 19 19 18 18 18 18 18 18 18 18 18 18 18 18 17 17 18 17 18 17 17 17 18 18 17 16 17 18 20 20 19 20 21 20 21 21 21 20 19 19 20 20 21 21 21 21 21 21 22 22 21 21 21 21 21 21 20 22 23 23 22 22 22 22 22 22 22 22 22 22 22 22 22
19 21 20 20 21 22 22 20 18 17 18 18 18 18 18 18 18 18 18 18 18 19 18 18 18 17 17 18 18 17 17 17 17 17 17 17 17 17 17 16 16 17 18 19 19 19 19 20 20 20 20 20 19 19 19 20 20 21 21 20 21 21 21 21 21 21 21 21 21 21 21 20 22 22 22 22 22 22 22 22 22 22 22 22 22 22 22 22
19 20 20 20 21 22 21 19 18 18 18 18 18 18 18 17 17 18 18 18 18 18 18 18 17 17 17 17 18 17 17 17 17 17 17 17 17 17 16 16 17 18 19 19 19 19 19 19 19 20 19 20 20 19 19 20 20 20 20 20 20 21 20 21 21 21 21 21 21 21 20 20 21 22 22 22 22 22 22 21 21 22 22 22 22 22 22 21
17 17 19 20 21 22 21 18 18 18 17 18 18 17 18 17 17 17 17 17 17 17 18 17 17 17 17 17 17 17 17 17 17 17 17 17 17 17 16 17 18 18 19 19 18 19 19 18 19 20 20 19 20 20 20 20 20 20 19 20 20 20 20 20 20 21 21 20 20 21 21 20 21 21 22 22 22 21 21 21 21 21 21 21 22 22 21 21
17 18 18 19 20 20 18 17 18 18 17 17 17 17 17 18 17 17 17 17 16 17 17 17 17 17 17 17 17 16 17 18 17 16 17 17 17 17 17 17 17 18 19 18 18 19 18 16 17 20 20 20 20 20 19 19 19 19 19 19 20 20 20 20 20 21 20 20 20 21 20 20 21 21 21 21 21 21 21 21 21 21 21 21 21 21 21 21
19 18 18 19 19 17 16 16 16 17 17 17 17 16 16 17 17 17 17 17 17 16 17 17 17 17 17 17 17 16 17 17 17 17 16 17 17 17 17 17 17 18 19 18 17 18 17 15 16 18 19 19 18 17 17 17 18 18 18 19 19 19 19 20 21 20 20 20 20 20 20 20 21 20 20 20 20 20 20 20 20 20 20 21 21 21 21 20
17 17 15 17 18 17 17 16 16 16 17 16 16 16 16 16 17 17 18 17 16 16 17 17 16 17 17 17 16 16 16 16 17 16 16 16 17 17 17 17 17 18 18 18 17 17 17 16 16 16 17 17 17 16 16 17 18 17 17 18 19 19 19 20 20 20 20 20 20 19 19 20 20 20 20 20 20 20 20 19 19 20 20 20 20 21 21 20
16 16 14 15 16 16 16 16 16 16 16 16 15 15 16 16 16 16 17 17 17 16 17 17 16 16 16 16 16 16 16 16 16 15 15 16 16 17 17 17 17 17 18 18 17 17 17 17 16 16 16 16 16 16 17 17 17 17 17 18 18 19 19 19 19 19 19 20 20 19 19 19 19 19 20 19 19 19 19 19 19 19 20 20 20 20 20 20
15 15 14 14 15 15 15 15 16 16 16 16 15 15 15 16 16 15 16 17 17 16 16 16 16 15 16 16 16 16 15 16 16 15 15 15 15 16 17 17 17 18 18 18 16 16 17 17 16 16 16 16 16 16 17 17 17 17 18 17 18 18 18 18 19 19 19 20 20 19 19 18 19 19 19 19 19 19 19 19 19 19 19 19 20 20 20 20
15 15 15 16 15 15 15 15 15 16 16 15 15 15 14 15 15 15 15 16 16 17 16 16 15 15 16 16 17 16 16 16 16 16 15 15 15 16 16 16 17 17 17 17 16 16 17 16 16 16 16 16 16 16 17 17 16 17 17 17 17 17 18 18 19 19 19 19 19 19 18 18 18 19 19 18 18 19 19 19 19 18 18 19 19 19 19 19
12 12 14 16 16 14 15 14 14 15 16 15 15 15 15 15 15 15 15 15 15 16 16 16 16 16 16 16 16 16 16 16 17 17 16 16 16 16 16 16 16 17 17 16 16 17 17 16 15 16 17 16 15 16 16 16 16 16 17 17 17 17 18 18 18 18 19 19 19 19 19 18 18 18 19 18 18 18 18 18 18 18 18 18 18 18 18 18
11 11 12 16 16 14 13 14 14 15 15 15 15 14 15 15 14 14 15 15 15 15 15 16 16 16 16 16 16 16 16 16 16 16 16 16 16 15 16 16 15 16 16 16 16 16 16 16 16 16 17 16 15 15 16 16 17 17 17 16 16 17 18 18 18 18 18 18 19 20 19 18 17 18 18 18 18 18 18 17 17 17 17 17 17 18 18 18
Height
808 806 805 803 801 799 798 797 796 794 793 792 791 790 789 788 787 786 786 785 784 783 781 780 779 778 778 777 777 777 776 775 775 776 773 765 763 766 767 770 772 773 775 777 780 782 785 787 788 789 791 792 794 795 796 795 794 800 809 814 814 813 809 801 799 798 797 798 798 799 798 803 806 802 797 796 799 802 803 803 801 800 800 802 805 808 814 818
807 806 804 802 800 798 797 796 795 794 793 792 790 789 788 787 786 785 785 784 783 782 781 780 779 778 777 777 777 776 775 774 774 772 765 760 761 764 766 769 771 772 773 776 777 778 782 786 787 789 790 794 795 795 798 795 795 804 809 812 811 807 801 794 793 793 793 796 796 797 798 800 802 801 798 801 806 804 806 807 805 806 807 806 808 811 816 818
806 805 803 801 800 798 797 795 794 793 792 791 790 788 787 786 785 784 783 783 782 781 780 779 778 777 777 777 776 776 775 774 772 766 758 757 760 762 765 768 769 771 773 774 776 778 780 783 786 788 791 796 796 796 800 797 797 802 806 811 806 799 796 790 790 790 789 791 795 798 797 799 799 797 798 802 806 805 807 807 807 811 811 810 810 812 816 818
805 804 802 800 799 797 796 795 793 792 791 790 789 787 786 785 784 783 782 782 781 781 779 778 778 777 777 776 776 776 775 774 767 759 757 757 758 760 763 766 768 771 773 775 778 780 781 784 786 787 792 798 797 797 801 798 798 800 802 807 799 795 797 791 788 788 787 788 794 797 798 800 798 796 798 801 807 808 805 802 803 808 809 810 810 811 815 818
804 803 801 800 798 797 795 794 792 791 790 789 788 786 785 784 783 782 781 780 780 780 779 778 777 777 777 776 776 775 775 774 764 756 757 757 757 760 762 765 768 770 773 776 779 781 782 784 786 789 793 798 799 800 801 795 795 800 799 797 794 794 797 790 786 787 787 789 793 797 799 799 796 797 799 799 805 805 799 797 798 802 804 806 808 810 814 817
804 802 800 799 797 796 794 793 792 790 789 787 786 785 784 782 781 780 779 779 779 778 778 777 777 777 777 776 776 775 775 772 761 756 757 756 758 760 762 765 767 770 773 776 779 781 783 785 788 792 794 797 800 800 799 793 794 802 798 791 791 791 794 789 786 787 786 790 795 796 794 794 798 801 798 798 802 797 792 793 795 798 801 804 806 810 813 816
803 801 799 798 796 795 793 792 791 789 787 786 785 783 782 781 780 779 778 778 778 777 777 777 776 776 776 776 776 775 775 768 758 758 758 757 759 760 763 766 767 771 773 775 778 780 782 786 789 791 795 798 800 798 796 794 794 801 799 792 789 788 789 786 785 787 786 790 792 791 792 796 801 802 798 799 799 794 791 792 795 799 801 804 807 810 813 816
802 800 798 797 795 793 792 791 789 788 786 784 783 781 780 779 778 777 776 777 776 776 776 776 776 776 776 776 775 775 773 765 758 759 758 758 761 762 765 767 769 771 773 775 776 778 782 787 789 789 795 797 796 796 795 796 797 800 798 791 788 786 784 783 784 786 787 789 789 790 795 797 798 798 800 800 797 794 792 793 796 799 803 806 808 810 813 815
801 799 797 796 794 792 791 789 788 786 784 783 781 779 778 777 776 775 775 775 775 775 774 775 776 775 776 776 775 774 768 761 759 760 759 760 761 763 766 767 770 771 773 776 776 778 781 786 788 787 793 793 793 795 794 798 799 795 793 790 788 785 781 781 784 786 788 788 788 793 798 798 795 797 801 799 796 794 793 795 798 800 805 807 808 810 812 815
800 798 796 795 793 791 789 788 786 784 782 781 779 777 776 774 774 773 773 773 773 773 773 774 775 775 776 776 775 772 764 759 760 760 761 761 762 765 767 768 770 771 773 776 777 778 780 783 784 783 788 791 792 793 793 797 795 789 790 788 787 785 782 781 784 786 787 789 789 794 800 798 794 799 804 799 794 794 795 799 799 801 806 807 808 810 812 815
799 797 796 794 792 790 788 787 785 783 781 779 777 775 773 772 771 771 771 771 771 772 773 773 774 774 775 776 774 769 762 760 761 761 762 762 763 765 767 768 770 771 773 776 778 779 779 781 781 783 789 791 791 793 791 790 789 787 788 788 786 785 785 783 786 788 788 792 790 792 800 800 798 802 802 796 794 795 797 801 802 803 806 806 808 810 813 815
799 797 795 793 791 789 787 785 783 781 779 777 775 772 771 769 768 768 768 769 770 771 772 773 774 774 775 776 772 765 760 761 761 762 764 764 765 766 767 769 770 772 773 775 778 779 780 781 781 786 790 789 792 796 791 786 786 787 787 791 789 786 790 789 789 789 788 793 789 789 803 805 803 803 797 793 794 795 798 802 803 804 805 807 809 810 812 814
798 796 794 791 789 787 786 784 782 780 778 775 773 770 769 767 766 766 766 768 769 770 771 772 773 773 775 773 766 761 760 761 762 763 765 765 766 768 769 771 772 773 774 775 778 779 781 782 782 785 786 788 793 792 786 784 786 788 788 792 792 791 795 792 790 790 790 793 786 791 809 807 800 798 793 792 793 796 801 803 804 805 805 807 808 810 812 813
797 795 793 790 788 786 785 783 781 779 776 774 772 769 767 766 765 765 765 767 768 770 771 772 773 774 774 769 761 760 761 761 763 764 765 766 767 769 771 772 773 775 776 777 778 780 781 782 782 784 785 787 789 786 786 788 788 790 791 793 796 798 799 793 790 792 795 794 785 794 810 804 796 796 792 791 792 796 802 803 804 805 805 807 808 810 812 812
796 794 792 789 787 785 784 782 780 777 775 773 771 769 767 765 764 763 765 766 768 770 770 772 773 773 773 767 760 760 761 761 763 763 764 765 767 769 772 773 775 776 777 778 779 780 782 783 784 788 788 785 786 790 794 794 791 793 797 800 800 800 801 796 790 790 796 795 788 797 809 802 796 794 790 791 792 795 801 803 804 804 805 806 807 809 811 812
795 793 790 788 786 784 782 781 778 776 774 773 771 769 767 766 764 764 766 767 769 771 771 772 772 773 773 766 760 760 761 760 761 762 764 765 766 768 771 774 776 777 778 779 780 781 782 784 786 788 789 788 791 796 797 798 797 796 799 802 802 801 802 800 794 789 790 795 793 798 805 802 798 795 791 792 793 796 800 802 803 804 805 806 807 808 810 812
793 791 789 787 785 782 781 779 778 775 773 772 771 769 768 768 767 766 768 769 770 771 771 772 772 773 769 761 760 762 760 760 760 761 763 766 767 767 770 774 776 778 779 780 781 782 784 786 788 789 790 793 794 796 803 809 806 801 799 801 803 803 802 800 798 791 787 795 799 799 802 801 798 796 794 793 793 796 800 802 803 804 805 805 806 808 809 811
792 790 788 786 783 781 779 778 777 774 773 772 771 770 770 769 770 769 769 769 771 771 773 772 772 774 770 761 761 762 759 759 760 760 762 765 768 768 769 772 775 777 780 782 783 784 787 788 790 794 795 796 796 798 806 809 803 801 801 801 803 803 802 801 799 793 790 795 799 801 804 800 796 796 796 794 794 797 800 801 802 803 804 805 805 807 808 810
791 788 786 784 781 779 778 777 775 773 772 771 771 771 770 770 771 771 770 770 771 770 771 770 769 771 769 762 760 759 757 758 759 760 762 764 768 769 770 772 774 777 782 786 787 786 787 791 794 799 799 797 797 797 799 798 795 797 799 800 803 802 801 799 796 791 790 798 800 801 802 797 795 796 796 795 794 797 800 800 802 802 803 804 805 805 806 808
789 786 784 782 779 777 776 775 774 772 771 771 771 771 771 772 772 771 770 769 767 765 765 765 764 765 763 760 758 757 756 757 758 759 761 763 765 769 771 773 776 780 782 785 788 785 785 793 798 796 794 793 794 793 793 794 793 796 799 801 803 803 800 796 795 789 787 797 800 796 798 796 793 794 793 793 795 798 800 801 802 802 801 802 803 804 805 806
788 785 782 780 778 776 774 773 772 771 770 770 770 770 771 772 773 773 770 767 763 762 762 762 762 762 760 758 758 757 758 758 757 758 760 762 763 769 775 776 780 784 784 783 785 785 787 795 795 790 789 789 791 792 793 795 796 797 798 801 802 803 799 794 795 792 787 796 798 794 799 798 792 791 790 791 795 797 796 798 799 798 799 799 800 803 803 804
786 783 781 778 776 774 773 772 770 770 769 769 769 769 770 771 771 771 771 769 763 760 762 761 761 761 758 757 757 757 760 761 760 759 760 762 764 770 775 778 781 784 784 784 786 791 795 794 790 787 786 788 791 793 795 797 797 798 798 801 802 800 798 796 795 792 789 796 797 795 799 796 787 787 787 788 790 790 788 790 792 793 797 799 799 800 801 803
785 782 779 777 774 773 771 770 769 769 769 769 769 769 770 770 769 769 770 772 767 760 760 761 761 761 758 757 755 756 760 762 762 761 758 762 766 768 773 778 781 782 785 786 786 793 798 792 785 786 786 789 794 795 795 797 797 798 798 801 802 799 800 800 798 795 792 793 795 795 798 793 786 785 786 784 783 783 783 785 787 790 794 795 795 796 798 801
783 780 778 775 773 772 770 769 769 768 768 768 768 769 769 769 768 769 769 771 771 763 758 759 759 759 758 755 753 756 760 760 761 760 757 760 766 768 770 775 780 783 785 785 784 789 792 785 781 785 788 789 795 797 796 797 798 798 798 799 800 799 799 799 799 797 793 792 792 797 801 795 789 791 788 782 781 782 783 785 788 789 790 791 793 794 796 797
781 779 776 773 772 770 768 768 768 768 768 768 768 768 768 768 767 767 769 774 775 765 758 758 758 757 755 754 754 754 757 759 759 758 756 757 763 768 771 772 777 783 786 786 786 787 787 782 781 787 790 790 794 797 796 796 798 799 797 795 796 796 797 799 800 799 800 801 794 797 810 804 791 791 789 783 784 786 784 786 789 789 790 791 792 793 794 795
780 778 775 773 771 768 768 768 768 768 768 768 768 768 768 767 766 766 770 778 777 766 761 761 760 757 754 755 755 753 760 764 757 756 756 757 759 763 771 774 774 781 785 784 785 785 784 782 781 786 790 792 795 796 794 794 799 802 796 790 792 794 796 799 800 802 806 807 797 795 811 811 794 788 787 785 787 788 786 786 786 787 790 790 790 790 791 792
779 776 774 772 770 768 768 767 768 768 767 768 768 767 767 766 766 766 772 784 782 768 764 763 759 757 755 755 753 756 768 767 758 757 758 759 759 759 769 776 775 779 779 782 790 787 782 784 785 785 788 792 794 795 792 791 798 801 792 789 793 793 796 798 800 804 804 802 799 795 802 811 803 792 789 788 790 791 790 789 787 786 788 787 787 787 787 788
778 775 773 772 770 769 768 768 769 767 767 768 766 767 766 765 766 766 776 792 785 766 763 762 756 755 754 754 754 757 764 763 763 765 759 758 761 760 768 773 773 777 776 781 793 787 779 785 786 784 788 792 790 789 787 788 795 794 786 789 791 791 794 794 797 803 804 805 808 800 798 810 808 796 791 791 795 798 796 793 790 788 787 786 785 784 784 784
776 774 772 771 770 769 768 768 768 767 767 767 766 766 765 764 766 769 782 793 779 764 763 760 756 757 756 756 758 759 760 761 767 768 760 761 762 761 769 773 772 776 776 777 783 782 779 781 779 780 786 787 784 782 782 786 790 786 785 789 790 791 794 795 798 802 807 815 814 801 798 807 811 806 800 799 802 804 799 793 788 785 784 784 783 783 782 782
775 773 771 770 769 769 768 768 767 767 767 766 766 765 763 766 769 778 792 791 776 767 764 760 761 761 760 761 764 765 765 767 768 766 765 767 765 763 769 772 771 775 778 777 778 780 779 777 776 780 783 783 781 781 780 782 783 782 787 791 793 796 796 798 801 801 814 824 809 797 795 799 812 816 808 807 807 803 799 795 788 782 779 780 780 780 781 781
774 772 771 769 769 769 768 767 766 767 766 765 766 763 765 770 774 787 796 784 774 771 765 765 765 763 764 767 770 771 770 772 772 770 773 774 772 773 775 777 777 778 781 782 781 780 780 779 780 782 782 781 782 783 782 781 780 783 788 792 800 805 803 806 809 809 824 826 804 798 798 798 815 822 810 807 804 799 798 796 792 786 779 775 775 776 777 778
773 771 770 769 769 768 768 767 765 766 765 765 765 764 769 777 783 793 792 778 777 778 771 771 769 767 769 770 777 778 774 778 778 778 783 784 785 789 791 794 794 791 791 791 786 783 784 784 784 783 781 781 784 784 786 787 784 785 789 794 807 817 818 823 822 819 824 816 803 805 803 804 820 821 810 806 802 798 798 794 791 788 780 774 771 771 772 774
773 771 770 769 768 768 767 766 764 765 764 763 765 765 771 785 794 795 788 781 783 779 772 773 772 771 770 773 782 782 778 785 785 783 788 788 791 796 796 797 798 796 795 793 789 788 791 789 785 785 784 782 785 784 786 790 789 789 790 795 808 819 827 834 831 827 823 810 802 805 804 811 822 817 808 806 801 797 795 791 789 786 781 774 768 767 769 770
773 771 770 769 768 767 766 765 764 763 763 763 765 769 778 793 798 792 787 785 782 776 774 777 776 773 773 779 785 783 783 791 789 786 789 790 796 802 799 796 797 797 795 793 794 795 799 799 793 791 790 786 786 786 786 787 786 786 784 787 797 803 811 823 822 820 817 809 805 807 807 813 819 815 806 801 798 794 792 790 786 783 779 773 767 765 767 769
772 771 770 769 768 767 765 764 763 762 763 762 766 776 790 801 801 793 791 786 781 778 777 777 776 776 780 784 786 782 783 791 793 792 794 798 805 809 807 803 800 800 798 797 800 800 802 803 794 790 791 789 789 788 785 786 787 788 784 786 793 789 790 804 810 805 801 805 809 810 808 805 806 806 799 796 797 794 792 790 785 784 781 776 773 772 770 769
771 771 770 769 767 766 764 764 762 762 762 761 770 788 798 800 798 794 790 784 782 783 780 778 778 782 786 788 789 786 781 787 795 797 801 806 809 810 811 808 803 803 801 799 803 803 803 803 795 791 790 788 789 788 785 787 789 788 789 792 791 784 784 798 809 805 800 806 812 810 809 808 807 805 799 797 799 796 794 793 789 788 785 781 781 779 776 773
771 770 770 769 767 765 764 763 762 762 761 761 778 795 798 794 793 792 789 784 784 784 782 784 788 791 793 793 796 793 785 788 795 798 806 811 810 812 813 809 804 804 804 802 803 803 802 801 796 795 794 788 787 788 785 785 785 786 789 789 787 787 788 793 806 812 808 809 814 816 818 820 820 815 806 802 803 801 799 797 794 792 788 786 785 782 781 777
770 770 770 769 768 766 764 762 762 761 761 769 786 795 794 792 790 788 788 786 784 783 783 789 793 795 796 796 801 800 791 793 800 803 809 812 813 815 815 813 805 801 802 801 800 803 803 802 798 796 797 792 785 786 789 786 783 785 787 786 789 795 797 797 805 812 810 812 821 825 825 828 830 825 816 813 811 808 805 801 798 796 793 791 789 785 782 778
770 770 772 772 769 767 765 764 763 760 764 781 794 795 792 791 788 786 787 786 785 784 786 791 793 794 797 798 803 802 796 799 806 809 812 816 817 815 815 816 808 801 802 800 800 804 804 803 802 795 793 794 790 794 805 802 790 785 786 787 791 794 796 796 797 798 801 813 824 827 828 832 832 827 821 820 816 812 810 807 803 800 798 795 793 789 785 780
771 773 776 773 770 769 767 763 764 767 776 790 796 794 792 792 789 786 785 784 786 786 789 794 793 795 801 801 802 804 803 805 809 811 815 818 819 816 814 816 813 807 803 801 802 805 802 801 805 799 792 798 806 811 817 815 803 796 795 799 800 799 797 796 798 800 801 808 815 821 833 838 829 822 821 819 817 814 812 809 806 803 800 797 794 791 788 783
773 777 779 773 771 770 766 767 775 782 789 795 796 795 794 792 791 789 786 784 786 786 789 793 795 798 801 802 803 806 808 810 812 813 817 820 821 820 815 815 817 811 805 802 803 805 804 802 807 809 805 811 819 820 816 815 812 807 807 812 811 807 802 799 805 809 806 807 808 811 833 842 827 819 819 817 817 815 812 811 807 804 801 798 796 792 788 785
777 783 782 775 773 770 768 778 788 791 793 797 798 798 795 794 794 792 789 787 787 788 789 792 797 801 802 803 805 807 809 814 816 816 819 822 822 822 818 815 815 811 807 808 808 807 807 806 810 816 819 819 820 818 815 815 814 810 810 814 812 810 809 804 806 809 808 814 810 806 828 842 828 820 819 817 817 815 813 812 809 806 803 799 797 793 789 787
783 786 781 776 775 770 774 789 795 793 796 798 798 798 797 798 798 795 793 792 791 792 793 797 800 802 804 805 806 808 811 816 821 820 821 823 821 820 819 815 812 810 808 811 811 808 808 814 818 821 823 819 816 816 815 813 813 813 814 815 813 814 814 811 811 811 810 817 813 809 830 841 828 821 819 816 817 816 814 813 810 808 805 801 799 795 792 789
788 787 782 778 774 770 780 795 798 798 800 799 798 799 798 799 800 799 798 798 798 798 800 804 804 803 806 807 807 811 812 815 822 823 821 823 821 818 818 815 811 810 809 812 812 808 812 821 822 822 827 826 820 819 818 815 816 820 821 819 817 816 815 814 815 812 815 825 820 814 828 837 828 823 820 817 817 817 816 814 812 811 808 804 801 798 795 793
788 788 786 782 777 777 788 798 797 800 803 802 803 804 802 801 802 803 803 802 803 802 803 807 807 805 807 807 809 813 811 811 819 823 822 823 821 818 817 816 813 811 810 811 811 808 818 830 825 819 823 826 825 825 825 824 824 825 826 823 819 819 818 817 815 813 820 830 826 819 825 831 828 824 823 821 820 820 819 817 814 813 811 808 805 801 799 796
790 793 794 790 785 787 795 799 798 800 803 804 806 809 809 807 805 803 802 804 805 804 805 808 808 807 808 809 812 816 814 812 815 821 824 824 822 820 819 817 815 813 811 811 811 812 823 834 832 824 821 823 829 834 833 831 830 830 830 827 823 822 821 817 815 817 822 826 828 831 831 829 829 828 826 826 824 823 823 820 818 816 812 810 808 805 803 800
794 801 805 801 797 796 798 800 801 802 803 805 810 813 813 812 809 806 803 805 808 807 808 810 811 810 811 813 816 820 821 818 818 823 827 827 824 822 820 817 816 814 813 812 813 816 823 831 833 832 832 832 835 837 835 832 833 834 833 830 826 825 823 820 820 824 826 823 829 837 835 832 834 831 829 829 827 826 826 823 821 819 816 813 811 808 805 803
798 804 808 805 805 807 806 805 805 805 805 807 812 816 816 814 814 813 809 808 809 809 810 814 816 815 815 816 818 822 825 824 825 829 829 828 826 824 821 820 818 816 815 815 815 818 824 832 833 834 837 837 836 835 834 833 834 835 834 832 830 827 827 827 827 828 828 826 830 836 836 835 835 831 829 830 829 828 827 825 824 822 818 816 813 810 808 806
801 804 806 805 807 812 812 810 808 806 807 809 813 817 818 817 817 819 816 813 813 813 813 818 821 820 819 818 819 824 827 826 828 831 829 829 830 828 827 825 821 818 817 818 821 823 826 832 835 834 836 838 837 837 835 834 834 833 832 832 832 831 830 830 830 828 828 829 830 833 836 837 834 831 830 830 828 828 827 825 824 823 821 818 816 814 812 811
802 804 805 805 808 811 812 812 810 808 810 813 815 819 820 820 819 820 819 818 818 817 816 820 823 822 821 819 819 823 826 824 826 828 829 830 831 830 830 829 826 822 820 822 825 824 826 834 837 835 837 840 840 838 836 836 837 836 833 833 833 833 833 832 831 829 829 831 832 832 836 839 835 831 830 830 829 829 828 827 826 825 823 821 819 818 816 815
804 805 804 804 811 815 813 815 814 812 814 816 818 820 820 820 821 821 821 821 822 820 818 820 823 822 822 822 822 824 825 823 823 823 824 826 827 827 827 828 827 825 824 827 828 825 826 835 838 836 837 841 842 840 838 837 839 837 835 835 835 834 833 832 831 831 831 833 834 831 833 838 836 832 830 831 830 829 829 829 828 827 826 824 822 821 819 817
806 807 804 804 812 819 818 818 817 816 818 819 820 821 821 821 822 822 822 822 822 821 821 821 821 822 824 826 826 826 825 824 824 823 824 825 825 826 826 826 827 828 827 828 830 831 830 833 836 837 837 840 843 842 840 839 838 836 834 836 837 835 833 833 832 833 833 833 832 830 830 836 837 833 833 833 832 831 832 831 830 830 828 827 826 824 821 820
Wind_Speed
18 18 18 18 18 18 17 17 16 15 13 14 14 13 14 13 13 12 11 9 9 11 12 11 12 12 11 10 9 8 8 9 8 5 9 11 11 11 10 17 18 21 24 23 22 19 13 9 10 12 9 5 3 4 4 4 3 1 0 1 1 0 1 2 2 2 1 4 9 9 6 6 8 6 4 6 8 9 9 7 8 8 7 13 18 24 26 25
18 18 18 18 18 19 17 17 17 15 14 14 13 13 14 14 13 12 11 10 8 10 11 10 11 11 10 8 8 8 8 9 9 10 15 12 8 13 14 19 21 24 27 26 25 20 14 10 11 12 7 4 3 4 4 4 3 3 1 1 1 1 1 3 4 3 2 4 10 10 7 6 8 9 6 7 10 10 9 9 9 12 12 16 22 25 25 25
19 19 18 18 18 18 17 17 17 16 15 14 14 13 14 15 14 12 10 9 8 9 10 10 9 9 8 7 7 8 8 7 7 7 7 7 12 16 18 22 23 25 28 27 25 21 17 14 15 12 6 4 3 4 5 4 3 3 3 2 1 2 3 4 4 3 2 5 11 10 7 7 8 8 6 8 12 11 9 10 11 13 14 17 21 24 25 24
19 19 18 18 18 18 18 17 17 16 16 16 15 15 15 15 14 12 10 8 7 8 9 9 8 7 7 6 7 8 7 4 3 3 3 2 12 19 21 25 25 25 26 25 22 18 18 17 14 9 6 5 3 4 5 5 3 2 4 4 1 1 4 4 3 1 2 7 11 10 8 8 8 7 6 10 11 9 9 10 12 15 18 20 20 23 25 24
18 18 18 18 18 18 18 17 17 17 17 17 17 17 16 15 14 12 10 7 5 6 8 8 6 5 5 6 7 7 5 2 1 2 5 2 14 23 24 27 26 25 25 22 19 17 19 16 10 6 4 5 5 5 4 6 4 2 5 6 5 4 6 5 2 1 4 7 10 10 9 8 8 6 8 12 6 4 7 9 13 17 20 21 22 23 23 22
18 18 17 18 18 18 18 18 18 18 18 18 18 18 18 17 14 13 11 7 5 6 8 7 6 4 3 5 6 5 3 2 3 5 5 3 19 26 27 28 25 26 26 22 19 17 15 12 9 7 5 5 7 6 3 6 6 4 5 6 8 7 8 5 2 4 5 8 10 10 8 8 9 7 9 10 1 2 7 10 14 17 20 22 23 22 21 21
18 18 18 18 19 18 18 19 19 19 19 19 20 20 19 18 15 13 10 6 5 6 7 7 5 3 3 5 4 2 1 4 4 3 1 11 24 26 26 26 25 27 24 21 18 14 13 11 10 7 6 5 6 8 3 5 7 6 6 7 8 7 9 8 4 6 7 8 9 8 8 9 10 6 8 9 1 5 9 11 14 17 20 22 21 20 19 20
18 18 18 19 19 19 19 19 19 20 20 20 21 21 20 18 16 13 8 6 5 6 7 7 5 2 2 3 2 1 2 4 3 1 6 18 26 26 26 24 24 26 23 21 17 14 13 12 10 6 7 5 4 8 4 3 6 8 9 8 7 7 8 7 5 7 7 6 7 8 8 9 8 4 8 9 4 7 10 12 14 16 18 19 19 19 19 19
19 19 19 19 20 20 20 20 20 21 21 22 22 22 20 18 16 11 7 5 6 7 6 6 4 2 1 1 1 1 1 4 2 7 12 22 26 26 26 22 23 25 22 18 16 16 12 10 9 5 5 5 5 8 5 3 4 6 9 8 9 11 10 6 6 9 8 6 8 10 8 8 7 3 7 9 6 9 12 14 15 16 17 16 16 18 19 18
20 19 20 20 20 21 21 21 21 22 22 23 24 23 20 17 15 11 7 6 8 8 6 5 4 3 3 3 2 2 1 5 3 12 16 22 25 26 24 21 24 24 19 13 14 15 9 8 8 3 3 4 4 5 4 4 1 2 7 9 10 10 9 4 6 9 8 7 9 9 7 8 7 3 5 8 8 10 13 14 15 16 16 16 15 16 18 18
20 20 20 21 21 22 22 22 22 23 23 24 24 22 20 17 14 11 7 8 9 8 6 5 4 5 4 3 3 2 4 4 8 16 17 21 25 26 23 22 23 22 19 11 12 13 7 9 8 2 2 3 4 3 3 3 4 5 7 8 6 4 4 2 7 9 7 6 7 7 7 7 7 4 5 8 10 11 14 15 15 15 15 15 15 15 15 16
21 21 21 22 22 23 23 23 23 24 24 24 24 22 20 17 13 10 8 9 10 8 7 6 6 6 4 2 4 4 4 5 10 18 19 21 23 23 20 22 23 22 21 12 10 12 9 11 9 3 2 2 5 3 2 2 6 6 5 5 4 2 3 4 5 8 6 5 7 8 6 6 9 6 4 10 12 12 14 14 15 14 13 14 14 14 13 15
21 22 23 24 24 24 23 23 24 24 24 24 22 20 18 14 10 7 8 10 9 8 7 6 8 8 3 2 3 5 3 4 8 18 21 20 18 16 15 21 22 20 20 16 14 15 10 9 7 3 1 1 3 1 3 3 5 4 2 3 4 2 2 3 3 6 5 5 9 8 2 3 9 8 6 11 14 13 14 13 14 13 12 13 13 13 13 15
23 23 24 25 25 24 24 23 24 24 23 23 20 17 15 12 8 5 6 10 10 10 9 8 9 7 1 3 2 1 5 2 7 16 21 19 14 11 12 18 18 15 14 13 16 16 11 6 2 2 1 1 0 3 4 2 2 2 1 1 2 2 1 2 3 7 5 4 8 7 2 2 4 9 9 11 15 15 14 13 13 12 12 13 13 13 12 14
24 25 26 26 25 25 24 23 23 23 22 21 17 13 13 11 6 2 6 11 12 11 10 9 8 4 1 4 2 1 4 5 7 14 18 18 14 10 11 14 12 11 9 7 11 15 11 4 2 3 2 1 2 3 2 0 0 1 2 2 1 1 1 2 4 7 4 4 8 7 3 1 2 7 12 11 14 16 14 14 14 13 13 13 13 13 11 12
26 26 26 26 26 25 24 23 22 22 21 17 12 11 12 10 6 6 10 12 11 11 8 6 7 4 2 0 2 3 4 4 4 9 15 18 14 10 12 13 9 9 8 6 5 8 8 4 2 2 1 2 2 1 1 2 2 1 2 1 0 1 0 2 3 6 5 5 9 7 3 1 4 4 11 12 14 15 13 14 14 14 13 13 12 12 11 11
27 27 27 27 27 26 24 22 21 21 20 12 6 9 12 11 11 13 13 12 11 9 5 4 5 3 2 0 2 3 1 2 2 6 16 16 10 13 16 11 8 8 8 5 4 5 7 4 3 2 2 2 1 1 3 5 4 2 2 1 1 1 1 1 2 5 7 5 8 8 6 1 4 5 10 12 14 14 13 14 14 14 13 13 11 11 11 11
27 28 27 26 26 26 23 21 20 20 18 8 3 8 12 12 11 12 13 12 9 6 3 3 3 2 2 2 1 1 2 2 1 5 16 13 9 15 13 7 9 11 9 5 3 4 6 4 4 3 3 4 3 4 5 4 4 4 3 2 2 1 1 0 1 4 9 6 6 8 8 7 2 6 8 11 13 13 13 13 13 13 13 13 12 11 12 12
28 29 28 26 25 25 22 19 18 18 15 5 5 8 10 9 7 7 9 8 3 1 0 2 2 1 1 2 3 4 6 4 1 5 13 15 13 12 9 8 12 10 8 7 4 5 5 4 5 6 6 7 5 5 4 2 3 5 3 2 2 1 1 1 2 3 9 7 6 8 8 10 7 6 8 10 12 12 12 12 11 12 13 13 13 12 12 13
30 30 29 26 24 23 20 17 16 15 12 3 6 5 3 3 1 1 2 2 4 3 2 2 3 2 3 2 3 6 5 2 1 5 13 17 16 12 7 7 9 6 6 7 7 6 5 6 7 7 7 7 6 6 4 2 3 3 3 3 2 0 1 1 2 1 7 6 6 9 9 9 8 6 9 10 12 12 13 13 12 12 13 13 14 14 14 14
31 30 29 26 23 22 19 16 15 11 8 3 6 4 1 1 0 1 1 3 5 4 5 4 3 5 6 4 4 4 3 0 2 5 13 18 15 11 5 4 8 6 4 7 8 5 5 8 7 6 7 7 5 6 5 2 1 1 1 1 0 1 1 1 3 1 6 6 3 6 7 10 10 7 9 11 13 14 15 15 15 16 15 13 15 16 15 13
32 30 28 25 23 21 18 15 12 5 3 3 4 3 2 1 2 3 2 3 4 2 4 4 2 6 7 7 7 1 1 1 3 6 11 14 10 7 4 5 7 6 4 6 7 6 7 7 6 7 7 6 3 3 5 4 3 2 1 2 1 1 1 1 3 2 5 5 2 3 6 9 10 8 9 13 14 14 15 17 17 17 15 13 14 15 14 14
31 29 27 25 23 20 17 13 6 1 1 2 5 4 2 3 4 5 5 3 4 1 2 3 2 4 4 4 5 5 3 2 4 5 9 12 6 4 6 6 5 6 7 8 7 8 6 5 8 8 7 7 4 3 4 3 3 3 2 4 2 1 2 1 4 4 4 5 3 1 5 7 7 7 9 13 14 13 14 17 15 14 15 15 15 14 14 16
31 28 26 24 22 19 16 8 1 1 2 3 6 4 4 6 4 6 5 2 2 2 2 2 2 3 3 1 5 7 2 1 2 4 9 11 5 3 6 5 5 6 6 6 7 7 4 4 9 8 7 8 5 4 4 4 4 3 4 5 3 2 3 1 3 2 3 6 3 2 4 4 4 6 7 9 12 12 12 14 13 13 14 15 14 13 14 15
30 28 26 23 21 18 11 2 3 3 2 5 3 5 6 7 2 6 3 1 1 2 1 2 1 3 2 1 4 4 1 1 1 1 5 8 5 4 3 2 3 6 6 6 7 7 3 5 8 8 7 6 5 5 5 5 4 3 5 7 6 5 5 2 1 3 2 3 2 2 4 1 1 4 5 6 10 12 11 13 14 13 14 14 14 14 15 15
30 27 25 22 19 14 5 3 3 5 2 4 1 6 7 7 2 6 2 1 1 2 0 2 1 2 2 1 2 3 3 2 2 2 3 3 3 3 3 2 1 3 6 6 4 4 3 4 7 8 8 7 6 6 5 5 5 4 4 7 8 7 6 4 1 2 2 0 1 1 4 2 0 1 2 2 8 11 11 13 15 13 14 15 14 14 14 15
29 26 23 18 14 10 4 1 4 3 3 2 3 7 8 6 1 5 2 1 2 1 1 0 0 1 0 0 1 3 3 2 1 4 6 3 1 1 3 4 3 2 4 4 2 2 4 5 5 7 8 7 6 5 6 8 6 2 3 5 9 10 9 7 4 3 2 2 1 3 3 3 2 2 5 2 5 8 10 12 13 12 14 16 16 16 16 16
27 24 20 14 9 8 4 1 2 1 1 3 5 8 9 2 4 3 2 1 2 1 0 1 1 1 1 0 1 1 2 1 2 3 5 6 5 1 4 5 5 5 4 5 5 2 4 6 7 7 7 5 6 5 7 10 6 2 4 5 7 8 8 7 5 3 0 2 3 3 4 3 1 4 7 4 2 2 4 8 10 12 13 15 16 17 18 17
25 22 17 11 6 5 4 2 1 1 3 6 8 10 7 1 4 1 1 1 2 1 0 1 0 1 1 1 3 3 2 2 2 2 4 5 8 3 3 2 3 6 3 3 4 2 2 3 5 6 5 4 5 5 9 12 7 2 4 4 3 3 3 3 3 2 2 2 4 4 6 5 1 5 7 6 6 8 8 8 9 11 14 15 16 17 17 16
23 19 15 10 4 3 3 2 1 1 4 7 10 10 2 3 2 2 1 2 2 0 0 2 1 1 0 3 3 5 5 5 4 4 4 4 8 7 3 0 1 5 3 0 1 2 2 1 1 3 1 2 2 2 7 12 7 5 6 4 4 3 2 2 1 2 2 4 4 5 8 6 1 4 6 6 7 9 9 8 9 9 13 16 15 15 16 15
20 16 13 10 5 2 2 1 1 3 5 8 10 6 2 2 1 0 3 2 1 2 1 1 1 2 3 5 3 4 6 7 6 5 5 4 6 9 5 1 1 2 3 2 2 2 3 3 2 1 2 3 1 1 2 5 6 6 6 5 4 3 2 2 2 2 4 4 2 2 6 6 1 3 6 7 8 11 10 9 11 11 10 14 15 15 15 15
16 13 11 10 6 2 3 4 6 6 7 8 7 2 2 1 1 2 2 1 1 3 2 1 2 3 6 8 7 5 4 6 6 7 6 4 6 8 6 4 2 3 4 3 3 3 4 3 2 1 1 6 2 3 3 3 6 6 5 5 5 3 4 5 3 4 5 3 1 0 3 4 2 4 6 8 9 12 11 9 11 12 10 10 14 16 14 14
13 13 13 12 10 6 6 7 8 8 7 5 3 1 1 1 3 2 3 3 2 2 2 2 3 2 5 8 7 6 7 6 5 5 5 4 6 6 5 8 5 2 2 1 4 4 4 2 5 2 1 6 5 2 3 4 6 8 7 7 6 4 6 7 4 3 4 3 1 0 2 3 5 4 7 8 8 11 11 10 10 10 11 9 10 15 14 14
9 13 15 16 16 14 11 8 6 5 4 2 1 1 2 4 3 2 3 3 2 2 3 2 1 5 7 6 3 3 6 8 6 6 5 4 5 4 4 9 10 4 0 0 2 2 3 4 4 4 1 5 6 2 2 1 5 6 5 5 6 4 4 5 5 5 5 4 3 2 2 3 6 5 7 8 7 10 10 11 12 11 12 11 4 10 14 15
5 11 15 16 19 19 13 7 5 4 3 1 3 3 4 3 2 2 3 4 3 3 4 2 2 5 7 4 4 4 4 4 4 7 8 6 5 5 4 7 11 7 1 1 1 1 0 3 4 4 2 4 5 3 3 1 4 3 1 3 4 3 2 1 2 2 3 4 3 3 2 2 5 5 7 10 9 11 12 13 15 15 14 13 9 3 5 10
0 5 11 16 22 21 13 8 5 4 3 1 5 6 3 2 2 2 2 4 3 4 5 3 4 5 4 2 4 6 6 4 2 3 6 6 5 7 6 4 7 7 3 0 2 0 1 3 4 3 1 4 7 3 2 1 2 3 4 4 1 1 1 1 2 1 1 6 4 2 3 4 3 4 7 13 12 13 15 15 16 16 16 14 12 10 8 6
1 1 6 17 26 22 14 10 6 4 2 2 7 5 1 1 2 3 4 5 3 3 2 2 3 3 2 3 3 5 5 3 3 3 2 3 4 7 8 4 3 6 5 1 1 1 0 3 4 4 1 6 8 2 3 6 3 2 4 3 2 1 1 0 2 3 5 8 3 3 5 5 1 1 8 15 14 15 16 15 15 16 16 15 13 11 11 11
4 2 3 16 27 21 14 12 7 2 1 5 8 5 1 2 3 3 5 4 2 1 2 3 2 2 1 2 3 5 4 1 3 3 2 3 3 4 7 4 3 7 7 3 1 1 1 2 3 3 2 5 7 1 2 6 7 2 2 2 1 2 3 1 2 4 7 7 4 4 6 6 4 4 9 13 14 15 15 15 15 16 16 14 13 14 14 12
5 1 2 17 24 15 12 12 6 2 5 6 5 3 1 2 4 6 6 3 0 1 3 3 2 3 4 3 3 4 6 3 2 2 2 3 2 3 7 4 4 9 9 5 1 1 2 0 3 3 4 3 4 5 2 5 5 2 2 1 1 1 1 2 1 1 4 5 4 4 4 4 5 6 9 10 11 13 14 13 13 14 15 13 12 13 13 12
4 1 2 18 20 8 12 13 6 4 6 4 2 3 2 2 4 8 9 5 3 2 2 3 2 3 5 5 4 4 6 6 4 2 3 3 2 2 7 5 4 8 7 4 3 1 2 1 1 4 5 1 2 6 5 6 5 2 2 3 3 2 1 1 2 2 1 3 4 5 4 4 4 5 7 8 10 11 12 12 11 12 13 13 13 12 12 12
3 1 2 19 17 6 10 11 6 4 3 3 3 3 3 3 4 8 10 7 5 5 4 5 5 4 4 4 4 3 3 5 5 4 4 4 2 2 7 7 4 6 5 2 4 4 2 1 1 2 4 4 5 3 4 6 7 6 4 3 3 2 1 3 3 1 1 1 1 4 5 4 4 4 5 7 8 9 11 11 10 11 13 13 13 13 13 13
3 2 4 20 15 9 11 7 2 3 2 3 3 2 4 4 5 7 8 7 5 5 5 6 7 6 4 4 4 3 3 5 5 4 5 5 6 4 6 8 5 4 3 1 2 4 2 1 4 4 4 4 5 3 3 4 4 5 7 5 3 2 2 2 3 3 2 1 1 3 5 5 4 5 5 6 7 8 10 10 9 10 12 13 14 15 15 14
2 1 7 19 12 6 8 5 2 4 4 2 2 2 4 4 5 7 7 7 5 4 5 6 4 5 5 4 3 3 3 4 5 4 4 5 7 5 6 8 6 3 3 1 1 2 1 1 3 4 3 1 4 3 2 3 1 2 6 7 5 3 3 2 1 1 1 2 2 3 4 4 4 4 5 6 7 9 10 11 11 10 10 12 14 14 14 15
1 1 4 18 13 4 4 4 3 4 4 3 4 4 4 4 6 9 8 8 6 3 4 5 4 4 5 4 4 3 2 2 4 4 2 3 4 4 5 9 8 5 4 2 1 2 1 1 1 3 3 2 4 4 2 2 3 3 4 7 7 7 4 1 0 0 1 2 1 2 5 5 3 3 4 6 8 10 11 11 11 11 11 12 12 13 14 14
2 1 2 13 17 10 4 1 3 5 4 4 6 6 5 3 5 6 6 7 6 4 3 3 3 4 4 4 6 6 5 4 3 1 1 3 2 3 6 9 8 7 7 5 2 1 1 1 1 1 2 3 2 1 2 1 2 2 3 7 8 10 8 2 1 1 2 1 2 1 5 6 4 4 6 8 8 10 11 12 12 11 12 12 12 12 13 13
1 2 1 5 9 7 3 1 2 3 2 3 5 5 5 4 3 5 5 6 6 6 5 3 2 3 5 6 7 8 9 8 6 3 2 2 2 2 5 7 8 9 9 8 6 2 2 3 3 2 3 1 3 4 1 1 1 1 4 7 7 8 8 3 0 1 2 3 3 3 3 5 5 6 6 7 8 9 10 11 11 11 12 13 12 12 12 12
1 2 2 2 2 3 3 4 3 2 1 1 2 3 5 4 3 4 5 4 4 5 4 4 4 3 4 5 6 6 6 8 8 6 3 2 2 1 3 5 8 11 10 8 6 2 3 3 3 6 7 5 5 6 3 1 3 3 4 5 6 7 7 5 3 3 1 2 4 2 1 3 5 5 5 6 6 7 8 10 10 10 11 12 12 13 14 15
1 1 1 2 1 2 2 4 4 4 5 2 2 2 3 5 5 4 4 3 3 4 3 4 7 7 5 3 3 4 4 5 6 3 2 2 1 1 2 4 7 10 8 6 5 3 3 3 2 4 7 6 5 6 4 3 3 2 2 3 4 5 5 5 4 2 1 1 4 3 2 4 5 4 5 5 5 6 7 8 8 8 10 11 12 14 16 16
1 2 1 1 1 1 1 3 3 5 7 4 3 3 3 5 6 3 3 3 4 5 4 4 6 7 5 3 3 3 2 2 4 1 1 2 2 1 2 2 4 7 6 5 4 2 1 3 3 3 6 6 5 5 4 4 3 2 2 3 4 4 4 3 2 1 1 3 5 4 6 7 4 3 4 4 4 5 5 6 7 9 11 12 13 14 15 15
1 1 1 1 2 2 2 2 2 4 5 3 3 3 3 4 5 3 3 3 4 4 3 6 6 6 6 6 6 6 3 2 4 2 2 2 1 1 1 0 1 4 5 4 3 2 1 2 3 2 4 4 3 3 3 4 4 3 3 3 2 2 2 1 2 2 2 3 3 4 8 6 3 3 4 3 3 3 5 7 9 10 11 12 13 14 14 14
2 1 1 2 3 3 3 2 2 2 3 3 2 2 2 3 4 3 3 4 3 2 3 6 7 5 5 7 9 8 3 2 5 4 3 2 1 1 1 0 1 1 4 3 2 2 1 2 2 1 2 3 1 1 3 3 1 1 1 4 3 1 1 1 2 1 1 2 2 2 5 5 3 3 3 3 4 5 7 8 8 9 10 12 13 13 14 14
2 1 1 2 2 3 2 1 1 1 2 2 2 2 2 2 0 1 3 3 4 4 3 4 4 3 4 6 7 5 2 1 2 3 2 2 3 2 2 3 2 1 2 1 2 2 1 2 3 2 2 3 2 2 4 2 2 3 2 4 3 1 2 1 1 2 1 0 1 1 3 4 3 2 2 2 4 6 7 7 7 8 9 10 12 13 13 14
Wind_Direction
350 348 347 345 343 342 343 344 342 346 350 347 344 343 342 341 338 334 333 337 337 334 333 336 338 332 326 324 317 305 301 292 295 271 241 262 244 213 188 180 175 164 165 163 151 138 136 137 136 154 154 144 152 153 179 211 224 280 248 270 341 312 354 17 352 344 65 159 166 168 163 144 140 143 137 137 130 131 132 111 101 90 101 124 124 133 144 150
349 348 347 344 342 342 343 344 342 346 350 348 345 342 341 339 337 333 330 331 331 329 328 332 340 339 334 333 329 315 312 305 294 264 251 263 234 196 179 174 175 171 167 163 158 146 144 149 146 155 158 144 157 162 177 194 205 242 257 278 262 228 295 318 316 296 236 159 162 172 164 162 155 149 165 158 147 149 137 126 116 105 112 122 127 138 147 152
348 347 346 344 342 342 343 344 343 346 350 349 346 344 340 336 335 332 328 327 324 324 321 325 338 346 349 348 338 327 324 316 284 262 268 261 217 190 170 172 177 175 173 170 165 156 147 146 150 154 152 154 165 168 183 186 191 221 229 263 231 229 285 313 313 274 225 151 158 171 165 173 166 154 176 161 155 166 154 148 144 133 135 137 138 146 151 155
347 346 346 344 343 342 343 344 344 347 349 349 347 345 340 336 333 329 325 322 316 316 313 316 330 349 2 354 340 338 325 296 265 256 342 311 195 177 165 169 176 178 176 171 166 159 143 139 149 152 151 162 164 172 196 196 194 197 212 252 216 226 294 328 346 289 176 158 158 159 165 178 170 163 177 156 157 181 174 163 155 149 149 147 148 152 156 159
347 346 345 343 342 342 343 344 346 349 349 348 346 343 339 334 330 327 321 314 306 302 303 304 318 345 0 351 342 342 323 234 44 327 329 313 173 165 161 166 174 177 172 165 157 150 142 141 149 148 160 164 165 183 208 204 208 236 233 257 260 269 287 309 334 170 138 148 153 158 171 170 163 174 184 171 169 188 175 165 152 150 153 153 154 156 159 162
346 344 343 342 341 342 345 346 346 347 347 346 344 341 338 333 328 324 314 305 290 281 293 291 301 333 347 348 342 341 320 257 337 326 330 164 164 159 158 165 172 171 165 156 146 143 141 148 159 156 169 166 176 189 194 196 206 248 248 257 259 262 270 283 265 175 150 156 163 167 164 151 166 184 190 189 217 79 150 150 147 149 154 154 155 158 162 165
343 343 342 341 340 342 346 345 345 346 346 345 343 340 337 332 327 321 310 293 273 269 279 280 285 315 338 342 339 352 290 282 317 323 359 154 158 155 157 161 165 164 160 150 143 149 147 157 174 161 165 166 187 197 172 185 203 242 261 267 271 267 258 263 238 187 174 172 167 158 152 157 179 185 186 193 85 107 138 139 144 144 150 154 156 161 165 167
341 341 340 340 339 342 345 344 346 346 344 343 341 339 335 331 326 318 305 280 257 258 264 268 273 279 320 323 320 326 230 290 316 143 143 153 154 153 154 154 158 160 157 154 151 154 151 162 171 154 175 170 178 193 182 193 203 230 256 270 280 280 268 261 222 187 175 167 152 152 160 168 177 167 182 188 134 134 141 138 143 142 149 158 161 164 167 168
339 339 339 339 340 343 345 345 347 346 344 342 340 338 334 329 324 316 299 268 242 250 255 249 252 219 214 242 284 267 211 331 306 159 151 156 154 153 153 149 154 156 155 157 153 154 158 167 167 164 191 170 168 189 192 222 202 218 249 274 285 291 293 275 203 178 166 154 156 161 161 164 166 154 183 187 152 143 145 142 146 149 155 161 164 167 169 170
339 339 338 340 341 343 345 346 347 347 344 341 339 336 332 326 319 308 283 248 230 243 240 221 226 182 174 210 227 179 10 345 162 157 160 161 154 154 157 152 154 156 151 148 152 160 168 167 162 176 192 162 173 182 183 216 301 279 265 282 282 295 312 283 178 164 155 151 167 165 154 163 170 189 198 180 161 152 147 149 152 157 162 164 165 169 172 173
339 339 339 341 342 344 345 346 348 348 344 341 339 335 330 323 311 297 266 228 219 231 219 201 198 170 170 218 239 156 31 358 164 160 167 167 158 160 166 162 159 157 150 147 162 164 155 160 163 165 173 162 173 186 200 228 320 307 286 292 276 307 7 67 143 153 150 149 170 153 137 162 175 213 217 166 161 163 154 153 160 164 166 167 167 169 174 175
338 338 340 343 343 343 345 347 349 347 344 342 339 334 328 319 308 289 246 212 212 215 195 182 173 155 147 224 241 204 39 36 161 167 169 170 166 166 170 169 169 165 156 152 171 173 156 161 177 173 127 159 172 197 252 285 307 287 283 294 280 335 53 77 122 156 163 150 163 152 137 183 195 206 191 160 160 165 160 157 164 169 167 168 170 172 177 177
338 339 342 344 344 344 345 348 349 347 345 344 340 334 329 323 315 289 233 207 204 191 172 165 165 152 143 242 239 217 249 38 150 171 169 171 171 167 170 173 175 176 169 164 168 176 168 156 179 175 112 200 165 249 299 292 288 264 254 285 286 293 81 79 123 161 165 148 166 182 182 180 196 194 158 159 164 163 165 165 169 172 171 175 177 178 181 180
340 342 343 343 343 344 345 347 348 347 346 346 342 338 336 330 319 291 220 193 180 167 157 150 158 148 144 257 308 240 220 131 151 173 171 172 164 149 165 170 172 176 175 172 171 176 172 139 142 174 191 270 240 307 296 288 285 265 224 221 290 289 90 79 160 168 163 153 176 205 246 86 165 180 162 162 168 166 170 171 173 175 176 181 183 183 183 184
343 344 343 342 341 342 344 347 348 347 347 348 346 350 353 344 330 263 178 168 160 152 145 139 152 157 293 266 298 87 167 152 165 181 182 180 163 140 159 164 161 162 151 146 171 185 184 156 152 190 193 233 272 286 292 279 91 338 236 189 217 288 71 92 174 183 171 157 186 208 239 44 65 164 163 165 172 171 173 174 176 179 180 183 186 188 186 185
344 345 344 342 340 340 342 345 348 346 347 351 356 17 24 25 56 110 138 145 142 138 136 138 160 194 281 338 115 132 163 165 165 188 191 184 173 149 147 148 139 149 146 116 135 174 182 178 185 208 226 204 229 266 190 204 170 118 248 214 115 241 171 114 161 198 181 146 186 217 253 35 45 146 161 164 176 175 175 177 178 181 183 184 186 189 189 185
343 344 345 342 338 338 339 343 347 343 345 354 18 53 57 64 89 108 120 125 121 119 119 136 159 211 268 128 147 159 199 185 139 185 188 186 179 150 137 134 132 139 146 129 105 134 158 175 188 196 236 210 190 200 196 197 180 160 206 182 69 254 258 151 149 191 187 167 191 216 244 264 65 128 163 168 177 178 180 181 180 182 185 186 186 188 190 189
342 343 344 342 337 335 336 341 345 341 342 356 75 85 81 86 99 113 120 119 114 111 104 128 164 219 218 212 215 223 281 239 90 161 175 175 169 150 133 129 140 137 137 141 138 144 157 177 191 184 198 202 198 204 199 189 176 163 171 173 131 133 222 248 79 163 181 191 198 202 231 246 193 137 164 176 179 183 184 182 183 185 187 190 190 190 191 192
342 341 341 341 335 332 334 338 343 338 339 1 126 106 93 98 103 122 125 122 136 181 153 168 195 257 206 227 295 306 298 276 198 157 159 155 152 139 115 122 136 141 148 151 163 171 166 161 180 199 202 194 190 201 199 102 123 130 115 125 117 118 189 247 348 176 185 194 205 205 225 243 227 172 172 181 182 188 188 184 187 189 191 195 196 195 194 195
342 340 339 339 335 332 333 337 341 334 336 6 157 142 95 116 134 171 149 179 226 252 290 232 202 273 299 264 301 324 321 274 171 158 158 156 149 128 106 125 134 148 164 153 156 170 178 174 186 200 185 169 176 199 205 90 97 116 110 112 92 7 196 182 343 217 194 206 216 215 231 248 240 199 182 180 183 191 192 189 191 193 195 197 197 198 196 198
341 340 339 339 336 333 335 337 338 329 335 20 169 177 96 149 60 314 302 270 239 238 256 245 224 264 282 276 290 348 12 269 80 127 157 157 151 140 130 155 154 160 169 145 136 141 191 199 189 172 151 153 176 193 195 168 162 197 187 165 132 221 237 34 5 336 201 218 226 210 236 252 247 225 189 178 186 196 195 192 195 198 197 197 197 198 198 198
341 340 338 339 335 334 338 336 334 325 342 44 142 144 108 94 325 265 248 291 271 235 235 247 271 270 273 272 263 227 129 189 107 119 150 154 164 171 156 180 176 157 150 151 141 148 193 204 163 142 143 141 132 159 174 180 192 202 215 239 212 208 270 65 35 17 190 214 268 202 235 252 249 236 199 188 195 201 198 195 198 197 196 199 199 197 196 196
341 339 338 338 336 336 338 333 329 352 17 74 121 107 86 353 331 219 201 281 290 281 207 224 244 250 266 268 224 177 158 192 146 143 157 157 174 187 158 177 180 142 156 177 172 167 189 193 154 144 146 145 128 137 162 167 185 196 206 228 214 140 256 160 63 47 168 218 297 264 251 262 256 241 212 205 206 207 203 199 199 195 195 200 201 198 195 194
341 341 339 338 336 336 337 334 69 75 12 128 121 68 17 347 347 187 193 293 292 294 240 216 232 231 262 261 171 164 150 200 166 149 163 162 147 156 167 168 158 150 166 188 186 173 153 140 149 148 153 164 163 152 176 201 200 194 207 232 233 205 244 251 40 17 203 225 261 279 270 264 248 244 229 213 209 211 205 198 198 193 195 201 204 204 199 197
343 342 340 338 336 337 341 24 104 17 16 149 129 20 5 348 323 182 198 309 250 300 238 176 233 219 235 217 166 173 130 109 242 131 158 163 141 149 168 144 169 175 162 157 180 185 140 128 150 153 159 171 176 178 197 216 222 212 205 221 231 227 237 241 29 327 267 210 191 262 269 228 171 248 241 207 202 210 202 196 202 195 190 198 204 206 204 202
345 343 341 339 338 346 18 124 31 9 113 151 3 352 356 340 289 180 202 325 90 350 302 141 177 190 193 182 169 186 144 109 321 27 98 144 143 149 156 150 214 172 154 149 178 198 144 140 161 161 165 174 194 209 196 196 227 237 193 203 215 217 225 223 222 280 273 244 98 262 272 283 294 290 297 220 200 205 200 202 207 199 191 196 203 205 202 202
346 344 342 342 344 360 50 163 345 18 147 165 326 343 347 334 163 160 225 270 102 11 317 114 269 141 98 199 181 189 157 118 74 65 47 25 347 232 173 171 179 131 148 159 172 193 153 152 160 154 160 173 199 213 186 191 221 225 152 184 202 207 212 209 210 237 286 324 280 212 241 278 279 9 5 319 217 208 209 215 214 206 199 199 203 204 202 202
347 345 342 347 353 5 27 344 352 104 110 1 331 339 342 332 141 150 260 183 78 353 345 43 292 314 341 40 44 102 111 63 122 78 15 20 33 228 189 181 178 140 138 187 185 163 154 174 174 165 175 188 203 206 178 188 217 215 163 174 193 206 206 199 207 218 300 294 258 188 193 240 252 30 16 11 352 311 275 257 241 225 213 207 207 206 204 203
349 344 340 347 357 8 24 32 70 136 3 357 341 339 341 138 143 204 243 93 31 346 62 19 341 326 338 97 38 33 63 35 53 32 345 19 30 29 164 154 148 126 109 224 199 127 114 212 185 170 200 213 206 202 176 186 208 179 153 151 149 162 163 177 202 176 135 233 245 189 192 224 25 36 20 24 18 354 334 311 274 241 224 216 214 211 207 205
350 344 338 342 346 353 6 24 80 36 353 348 342 341 354 137 165 230 136 61 359 5 214 319 290 301 294 126 62 28 47 39 19 27 28 30 27 34 76 51 104 125 109 31 201 97 76 232 126 115 226 262 229 210 182 191 185 127 147 161 135 115 111 126 122 131 167 214 231 203 200 221 270 51 30 20 1 345 333 327 313 271 234 217 215 215 211 207
351 349 344 344 339 325 337 356 7 349 339 340 344 350 112 130 266 198 85 66 344 11 11 325 345 26 78 111 81 24 48 42 11 24 44 29 29 36 32 328 40 120 140 137 165 83 86 130 116 67 11 10 252 178 147 191 172 143 165 181 161 134 137 148 122 171 208 204 214 206 198 213 231 53 26 8 360 354 343 333 331 315 267 226 213 213 212 210
1 7 8 9 4 321 298 310 316 322 328 337 351 9 171 165 57 59 25 341 355 3 352 349 8 52 85 84 60 27 56 56 24 43 59 40 48 49 36 24 358 198 171 165 173 130 102 95 29 263 72 22 347 185 116 141 179 182 186 184 180 162 164 183 174 189 210 198 95 43 196 188 108 63 17 5 7 3 354 342 337 333 314 255 217 207 208 209
20 30 31 29 23 356 327 319 312 314 322 332 6 86 192 96 63 21 333 347 30 3 347 5 5 47 89 86 67 37 54 55 11 39 59 41 62 72 58 41 12 251 169 157 177 157 149 118 21 14 126 9 346 212 153 149 180 192 188 186 191 174 174 184 168 167 202 194 147 329 214 165 125 79 19 10 5 2 0 354 349 348 344 316 235 208 205 207
40 40 33 27 19 3 346 338 324 319 332 338 131 120 92 77 40 329 334 350 339 341 357 359 36 67 70 70 59 18 53 56 28 41 58 42 53 42 28 32 19 3 341 100 156 183 183 150 36 18 351 351 4 4 343 140 166 180 186 189 194 194 188 185 176 177 177 156 130 169 205 162 144 115 37 18 3 5 7 3 4 6 2 354 300 213 206 208
49 38 29 21 11 3 355 352 348 353 2 95 108 67 64 67 346 315 354 335 305 334 354 358 58 78 76 56 31 20 40 58 36 44 55 57 54 23 356 5 10 9 314 196 118 310 138 102 13 342 285 342 5 357 332 202 164 143 166 202 197 212 217 147 168 179 155 141 129 163 177 69 125 131 41 18 12 13 12 10 13 11 8 12 15 348 241 221
93 26 25 14 4 0 0 3 4 3 337 151 80 58 61 62 335 317 334 322 318 320 322 11 39 60 87 68 31 28 34 52 36 41 54 58 54 26 2 343 1 8 355 40 104 355 130 98 9 334 167 28 3 340 15 12 199 148 164 192 166 348 321 121 139 44 146 176 162 138 123 67 130 154 18 9 12 16 14 14 15 11 10 15 17 7 347 308
291 320 22 11 1 358 1 7 359 340 314 78 75 67 96 69 346 302 308 305 301 304 296 66 30 16 84 82 32 8 16 48 27 28 53 37 39 12 351 330 346 6 357 330 70 17 137 121 56 13 38 19 356 285 112 40 4 179 168 157 90 39 310 304 164 155 187 188 154 86 102 68 70 197 5 3 9 13 11 11 12 13 14 13 8 360 350 337
335 319 32 8 358 353 3 18 10 325 48 71 77 91 118 35 16 333 322 305 278 331 40 78 36 355 52 99 59 2 349 47 25 41 71 33 40 7 348 330 330 2 357 314 241 61 341 133 104 34 348 354 359 296 156 31 21 46 99 90 90 193 189 198 185 175 188 185 131 106 112 64 26 353 356 360 5 7 6 7 11 14 14 11 4 357 350 342
353 10 32 0 357 358 22 35 30 34 74 67 69 88 49 8 12 354 343 335 302 359 44 62 44 44 53 76 100 31 26 65 61 57 71 24 45 26 7 344 311 348 355 340 17 102 323 162 134 26 344 303 10 32 5 354 13 69 97 68 357 308 205 188 186 194 199 178 140 140 137 72 35 358 354 2 7 8 10 9 10 14 13 11 7 1 354 348
6 72 14 356 0 31 51 50 46 32 62 70 43 51 24 340 358 359 357 10 29 15 47 62 37 67 74 67 82 56 41 57 60 68 59 23 76 70 20 3 311 331 339 350 39 48 302 18 115 15 2 321 59 43 31 14 14 35 59 43 27 347 280 158 74 10 270 184 159 155 135 76 41 3 359 9 9 11 16 14 11 13 12 13 12 9 4 359
9 85 354 350 357 64 62 49 49 31 60 70 38 30 17 10 2 0 1 14 39 45 56 72 60 68 94 76 64 56 54 62 51 62 72 31 39 63 16 359 310 311 324 348 32 17 348 32 83 42 37 80 98 60 26 28 26 37 49 28 2 352 236 186 170 117 19 344 166 151 131 87 40 7 4 12 10 9 12 11 12 14 13 14 15 14 14 12
26 88 344 349 4 76 72 51 37 34 72 67 41 11 6 18 4 356 359 13 43 55 50 59 56 50 65 67 60 60 73 69 40 51 86 59 44 36 350 335 304 299 337 29 15 2 1 57 67 75 59 82 121 113 22 20 19 44 51 30 360 6 348 241 184 143 102 63 93 111 114 98 48 10 9 19 18 15 14 11 12 15 14 15 16 16 17 18
33 60 354 356 5 87 75 58 56 52 63 61 52 29 23 31 13 4 8 15 26 45 42 42 40 40 46 50 66 80 68 60 43 52 100 83 49 28 330 332 333 330 358 30 20 359 6 46 62 89 86 124 179 194 8 20 2 46 41 23 16 19 357 355 37 103 120 116 133 128 123 112 63 18 14 29 32 32 28 21 18 17 14 15 16 17 19 20
26 217 349 7 21 92 84 63 94 81 65 50 55 43 31 49 33 20 22 24 21 33 55 47 33 42 52 49 65 73 42 63 66 50 73 91 45 3 342 354 7 23 24 7 330 351 15 14 52 118 125 164 199 209 185 84 37 47 30 9 16 21 10 16 28 300 101 55 334 159 134 115 73 32 32 36 36 37 33 24 23 21 16 13 14 17 20 21
28 184 279 9 32 61 77 53 97 97 89 67 58 37 20 58 48 21 27 38 31 28 62 58 27 47 68 67 70 60 30 46 90 93 72 86 63 354 353 360 9 28 39 36 5 341 57 39 325 181 170 195 193 153 153 90 25 52 18 4 15 17 8 3 200 137 111 85 345 64 114 112 82 52 53 42 32 32 28 22 22 21 17 16 15 16 19 21
25 46 306 357 27 48 66 35 51 88 94 73 65 32 14 44 39 6 23 43 33 30 57 65 18 47 68 68 73 59 39 49 77 107 109 79 73 24 340 349 9 16 27 40 32 25 111 71 17 33 57 82 100 82 60 351 29 65 17 9 13 11 4 358 122 71 88 128 100 50 69 101 73 45 49 43 32 30 24 19 20 16 15 17 15 17 21 24
100 52 1 341 15 31 56 44 24 58 90 65 74 27 12 30 27 13 28 42 25 21 48 54 22 33 73 81 87 67 46 57 68 74 80 60 68 30 321 345 11 5 8 27 19 15 118 85 36 58 68 74 85 83 76 61 61 41 5 4 4 2 5 13 51 69 34 156 121 79 5 85 66 37 40 42 36 35 26 20 18 12 13 16 13 17 23 24
54 115 303 310 350 8 33 25 19 59 77 71 80 52 31 46 50 35 30 36 28 13 32 55 32 28 48 69 100 91 63 65 65 56 69 66 53 23 9 16 12 2 9 32 21 24 100 87 54 80 88 88 81 75 69 60 63 34 336 342 342 348 5 23 49 62 320 46 94 109 117 91 76 55 49 46 41 40 32 22 15 11 16 18 17 20 23 22
56 109 43 337 44 65 18 345 360 58 64 54 56 54 44 55 61 49 6 19 45 21 19 65 43 27 37 39 74 94 83 87 88 71 67 72 48 32 50 40 16 7 15 42 40 16 81 93 89 101 104 91 65 57 51 32 22 346 327 324 314 321 342 6 40 63 61 73 76 100 113 97 78 72 64 49 37 36 32 26 23 21 19 18 21 22 21 20
56 93 25 61 75 41 3 353 4 56 54 37 50 50 35 52 65 65 14 23 61 34 31 83 75 46 48 64 84 89 71 92 103 112 169 141 94 86 86 264 25 17 14 33 45 355 340 104 96 105 116 96 52 38 29 9 354 337 352 7 334 306 321 27 85 97 111 100 79 109 124 112 91 98 85 56 32 30 32 31 30 25 17 16 22 21 18 16
47 31 344 107 70 3 358 16 10 57 55 34 52 61 55 64 66 80 62 34 46 63 84 103 97 68 56 69 80 83 75 92 98 115 168 164 83 108 103 183 202 10 22 28 15 3 35 109 113 146 155 130 93 353 335 350 350 247 50 40 29 78 106 54 74 79 82 108 114 170 152 129 116 135 117 68 40 33 32 31 29 25 19 17 18 17 14 12
54 48 26 102 86 5 358 13 5 73 69 29 40 64 65 82 90 155 100 61 34 49 87 127 116 85 74 71 62 49 11 344 56 77 134 98 76 82 63 77 95 21 25 51 22 19 66 127 134 181 184 145 157 277 301 293 207 184 101 43 16 58 66 28 113 94 44 75 215 213 139 115 110 139 129 74 43 32 30 27 23 21 18 16 15 11 8 8